Location: Binningen
(47.7924°N, 8.7261°E)
Time: 22:23:06
(UTC+00:00)

ARIANE 5 R/B - Pass Details

Date: 17 May 2021
Orbit: 620 x 656 km, 98.1° (Epoch: 13 June)

Event Time Altitude Azimuth Distance (km) Brightness Sun altitude
Exits shadow 21:33:20 16° 215° (SW) 1,638 4.5 -18.4°
Maximum altitude 21:35:58 28° 265° (W) 1,182 4.2 -18.6°
Drops below altitude 10° 21:39:43 10° 324° (NW) 2,001 6.4 -18.9°
Sets 21:42:11 0° 337° (NNW) 2,917 7.7 -19.1°
